EW8716 Weather Reports


time (UTC)temp
F
wind
direction
speed
knots
gust
knots
rain 1hr
in
rain 24hr
in
rain mn
in
humidity
%
barometer
mb
20260508142403 59 219 0.0 0.0 0.00 0.00 0.00 54 1014.7
20260508141903 59 271 0.0 0.0 0.00 0.00 0.00 54 1014.7
20260508141402 59 246 0.0 0.0 0.00 0.00 0.00 55 1014.7
20260508140904 58 219 0.0 0.0 0.00 0.00 0.00 55 1014.7
20260508140402 58 217 0.0 0.0 0.00 0.00 0.00 55 1014.7
20260508135902 58 187 0.0 0.0 0.00 0.00 0.00 55 1014.7
20260508135402 58 224 0.0 0.0 0.00 0.00 0.00 54 1014.7
20260508134902 58 190 0.0 0.0 0.00 0.00 0.00 54 1014.7
20260508134404 58 225 0.0 0.0 0.00 0.00 0.00 54 1014.7
20260508133903 58 238 0.0 0.0 0.00 0.00 0.00 54 1014.6
20260508133404 59 236 0.0 0.0 0.00 0.00 0.00 54 1014.7
20260508132902 59 234 0.0 0.0 0.00 0.00 0.00 54 1014.6
20260508132402 59 244 0.0 0.0 0.00 0.00 0.00 54 1014.6
20260508131905 59 240 0.0 0.0 0.00 0.00 0.00 54 1014.5
20260508131404 59 232 0.0 0.0 0.00 0.00 0.00 54 1014.5
20260508130904 59 231 0.0 0.0 0.00 0.00 0.00 55 1014.5
20260508130404 59 245 0.0 0.0 0.00 0.00 0.00 54 1014.4
20260508125902 59 324 0.0 0.0 0.00 0.00 0.00 54 1014.4
20260508125402 59 217 0.0 0.0 0.00 0.00 0.00 54 1014.3
20260508124902 60 247 0.0 0.0 0.00 0.00 0.00 54 1014.3
20260508124402 60 231 0.0 0.0 0.00 0.00 0.00 54 1014.2
20260508123904 60 350 0.0 0.0 0.00 0.00 0.00 55 1014.2
20260508123403 60 236 0.0 0.0 0.00 0.00 0.00 54 1014.2
20260508122904 60 194 0.0 0.0 0.00 0.00 0.00 55 1014.2
20260508122402 59 211 0.0 0.0 0.00 0.00 0.00 55 1014.2
20260508121903 59 234 0.0 0.0 0.00 0.00 0.00 56 1014.3
20260508121404 59 235 0.0 0.0 0.00 0.00 0.00 56 1014.2
20260508121149 59 296 0.0 0.0 0.00 0.00 0.00 56 1014.2
20260508120404 59 251 0.0 0.0 0.00 0.00 0.00 56 1014.1
20260508115905 58 178 0.0 0.0 0.00 0.00 0.00 56 1014.1
20260508115404 58 304 0.0 0.0 0.00 0.00 0.00 57 1014.1
20260508114903 58 244 0.0 0.0 0.00 0.00 0.00 58 1014.1
20260508114403 58 65 0.0 0.0 0.00 0.00 0.00 57 1014.0
20260508113904 58 5 0.0 0.0 0.00 0.00 0.00 58 1014.0
20260508113402 58 333 0.0 0.0 0.00 0.00 0.00 57 1013.9
20260508112903 58 350 0.0 0.0 0.00 0.00 0.00 57 1013.9
20260508112404 58 53 0.0 0.0 0.00 0.00 0.00 57 1013.9
20260508111901 58 28 0.0 0.0 0.00 0.00 0.00 57 1013.9
20260508111402 59 273 0.0 0.0 0.00 0.00 0.00 56 1013.9
20260508110903 59 0 0.0 0.0 0.00 0.00 0.00 57 1013.9
20260508110403 59 304 0.0 0.0 0.00 0.00 0.00 57 1013.8
20260508105904 59 19 0.0 0.0 0.00 0.00 0.00 56 1013.8
20260508105402 59 313 0.0 0.0 0.00 0.00 0.00 55 1013.7
20260508104904 59 270 0.0 0.0 0.00 0.00 0.00 56 1013.7
20260508104401 59 311 0.0 0.0 0.00 0.00 0.00 56 1013.7
20260508103901 59 219 0.0 0.0 0.00 0.00 0.00 57 1013.7
20260508103403 58 248 0.0 0.0 0.00 0.00 0.00 57 1013.6
20260508103147 58 215 0.0 0.0 0.00 0.00 0.00 57 1013.7
20260508102402 58 248 0.0 0.0 0.00 0.00 0.00 57 1013.7
20260508102157 58 232 0.0 0.0 0.00 0.00 0.00 57 1013.7
20260508101405 58 234 0.0 0.0 0.00 0.00 0.00 57 1013.7
20260508100904 58 333 0.0 0.0 0.00 0.00 0.00 57 1013.7
20260508100405 58 235 0.0 0.0 0.00 0.00 0.00 57 1013.6
20260508095941 58 238 0.0 0.0 0.00 0.00 0.00 58 1013.5
20260508095928 58 227 0.0 0.0 0.00 0.00 0.00 58 1013.5
20260508094903 58 143 0.0 0.0 0.00 0.00 0.00 59 1013.4
20260508094654 57 229 0.0 0.0 0.00 0.00 0.00 59 1013.4
20260508093902 56 200 0.0 0.0 0.00 0.00 0.00 59 1013.4
20260508093403 56 197 0.0 0.0 0.00 0.00 0.00 59 1013.4
20260508092937 56 226 0.0 0.0 0.00 0.00 0.00 59 1013.4
20260508092926 56 247 0.0 0.0 0.00 0.00 0.00 59 1013.4
20260508091903 55 123 0.0 0.0 0.00 0.00 0.00 60 1013.3
20260508091402 55 222 0.0 0.0 0.00 0.00 0.00 60 1013.4
20260508090905 55 13 0.0 0.0 0.00 0.00 0.00 60 1013.3
20260508090403 55 267 0.0 0.0 0.00 0.00 0.00 59 1013.3
20260508085904 56 103 0.0 0.0 0.00 0.00 0.00 60 1013.2
20260508085441 56 300 0.0 0.0 0.00 0.00 0.00 60 1013.1
20260508085429 56 266 0.0 0.0 0.00 0.00 0.00 60 1013.2
20260508084403 55 315 0.0 0.0 0.00 0.00 0.00 60 1013.1
20260508083903 55 244 0.0 0.0 0.00 0.00 0.00 60 1013.1
20260508083404 55 226 0.0 0.0 0.00 0.00 0.00 60 1013.0
20260508082946 55 236 0.0 0.0 0.00 0.00 0.00 60 1012.9
20260508082928 55 225 0.0 0.0 0.00 0.00 0.00 60 1013.0
20260508081902 55 228 0.0 0.0 0.00 0.00 0.00 60 1012.8
20260508081403 55 253 0.0 0.0 0.00 0.00 0.00 60 1012.7
20260508080902 55 211 0.0 0.0 0.00 0.00 0.00 60 1012.7
20260508080403 55 213 0.0 0.0 0.00 0.00 0.00 60 1012.7
20260508075905 55 221 0.0 0.0 0.00 0.00 0.00 60 1012.7
20260508075402 54 275 0.0 0.0 0.00 0.00 0.00 60 1012.6
20260508074902 54 216 0.0 0.0 0.00 0.00 0.00 61 1012.6
20260508074402 54 216 0.0 0.0 0.00 0.00 0.00 61 1012.5
20260508073904 53 183 0.0 0.0 0.00 0.00 0.00 61 1012.5
20260508073403 53 202 0.0 0.0 0.00 0.00 0.00 61 1012.5
20260508072902 53 232 0.0 0.0 0.00 0.00 0.00 61 1012.4
20260508072402 53 239 0.0 0.0 0.00 0.00 0.00 61 1012.3
20260508071940 53 215 0.0 0.0 0.00 0.00 0.00 61 1012.3
20260508071928 53 188 0.0 0.0 0.00 0.00 0.00 61 1012.3
20260508070903 53 223 0.0 0.0 0.00 0.00 0.00 61 1012.2
20260508070404 52 199 0.0 0.0 0.00 0.00 0.00 61 1012.2
20260508065903 52 211 0.0 0.0 0.00 0.00 0.00 61 1012.2
20260508065403 52 244 0.0 0.0 0.00 0.00 0.00 61 1012.2
20260508064904 52 239 0.0 0.0 0.00 0.00 0.00 61 1012.0
20260508064403 52 185 0.0 0.0 0.00 0.00 0.00 61 1012.0
20260508063902 51 227 0.0 0.0 0.00 0.00 0.00 61 1012.0
20260508063402 51 173 0.0 0.0 0.00 0.00 0.00 61 1012.0
20260508062903 51 222 0.0 0.0 0.00 0.00 0.00 61 1012.0
20260508062402 51 214 0.0 0.0 0.00 0.00 0.00 61 1011.9
20260508061939 51 222 0.0 0.0 0.00 0.00 0.00 61 1011.7
20260508061928 51 188 0.0 0.0 0.00 0.00 0.00 61 1011.8
20260508060903 51 185 0.0 0.0 0.00 0.00 0.00 61 1011.7
20260508060404 51 177 0.0 0.0 0.00 0.00 0.00 61 1011.7
20260508055903 51 197 0.0 0.0 0.00 0.00 0.00 61 1011.6
20260508055404 50 223 0.0 0.0 0.00 0.00 0.00 61 1011.6
20260508054904 50 209 0.0 0.0 0.00 0.00 0.00 61 1011.5
20260508054401 50 202 0.0 0.0 0.00 0.00 0.00 62 1011.5
20260508054145 50 201 0.0 0.0 0.00 0.00 0.00 62 1011.4
20260508053402 50 243 0.0 0.0 0.00 0.00 0.00 62 1011.4
20260508052903 50 196 0.0 0.0 0.00 0.00 0.00 62 1011.3
20260508052402 50 227 0.0 0.0 0.00 0.00 0.00 62 1011.2
20260508051902 50 221 0.0 0.0 0.00 0.00 0.00 62 1011.2
20260508051646 50 205 0.0 0.0 0.00 0.00 0.00 62 1011.2
20260508050901 50 205 0.0 0.0 0.00 0.00 0.00 62 1011.2
20260508050403 50 214 0.0 0.0 0.00 0.00 0.00 62 1011.1
20260508045903 50 212 0.0 0.0 0.00 0.00 0.00 62 1011.1
20260508045402 50 184 0.0 0.0 0.00 0.00 0.00 62 1011.0
20260508044901 50 219 0.0 0.0 0.00 0.00 0.00 62 1011.0
20260508044403 50 192 0.0 0.0 0.00 0.00 0.00 62 1010.9
20260508043905 50 204 0.0 0.0 0.00 0.00 0.00 62 1010.9
20260508043444 50 188 0.0 0.0 0.00 0.00 0.00 62 1010.8
20260508043430 50 212 0.0 0.0 0.00 0.00 0.00 62 1010.8
20260508042404 50 215 0.0 0.0 0.00 0.00 0.00 62 1010.7
20260508041903 50 221 0.0 0.0 0.00 0.00 0.00 62 1010.7
20260508041403 50 205 0.0 0.0 0.00 0.00 0.00 62 1010.7
20260508040904 50 223 0.0 0.0 0.00 0.00 0.00 62 1010.7
20260508040405 50 205 0.0 0.0 0.00 0.00 0.00 62 1010.7
20260508040147 50 222 0.0 0.0 0.00 0.00 0.00 62 1010.6
20260508035437 50 257 0.0 0.0 0.00 0.00 0.00 62 1010.6
20260508035425 50 192 0.0 0.0 0.00 0.00 0.00 62 1010.6
20260508034403 49 221 0.0 0.0 0.00 0.00 0.00 62 1010.5
20260508033903 49 138 0.0 0.0 0.00 0.00 0.00 62 1010.5
20260508033403 49 217 0.0 0.0 0.00 0.00 0.00 62 1010.5
20260508033143 49 144 0.0 0.0 0.00 0.00 0.00 62 1010.5
20260508032402 49 136 0.0 0.0 0.00 0.00 0.00 62 1010.5
20260508031903 49 191 0.0 0.0 0.00 0.00 0.00 62 1010.5
20260508031403 49 193 0.0 0.0 0.00 0.00 0.00 62 1010.4
20260508031143 49 207 0.0 0.0 0.00 0.00 0.00 62 1010.5
20260508030403 49 198 0.0 0.0 0.00 0.00 0.00 62 1010.5
20260508025902 49 228 0.0 0.0 0.00 0.00 0.00 62 1010.5
20260508025405 49 200 0.0 0.0 0.00 0.00 0.00 62 1010.5
20260508024904 49 193 0.0 0.0 0.00 0.00 0.00 62 1010.5
20260508024404 49 192 0.0 0.0 0.00 0.00 0.00 62 1010.4
20260508023858 49 192 0.0 0.0 0.00 0.00 0.00 62 1010.5
20260508023358 49 231 0.0 0.0 0.00 0.00 0.00 62 1010.5
20260508022858 49 238 0.0 0.0 0.00 0.00 0.00 62 1010.5
20260508022358 50 246 0.0 0.0 0.00 0.00 0.00 61 1010.5
20260508021856 50 142 0.0 0.0 0.00 0.00 0.00 61 1010.5
20260508021357 50 196 0.0 0.0 0.00 0.00 0.00 61 1010.5
20260508020857 50 198 0.0 0.0 0.00 0.00 0.00 61 1010.5
20260508020356 50 189 0.0 0.0 0.00 0.00 0.00 61 1010.5
20260508015856 50 182 0.0 0.0 0.00 0.00 0.00 61 1010.5
20260508015358 50 203 0.0 0.0 0.00 0.00 0.00 61 1010.5
20260508014856 50 196 0.0 0.0 0.00 0.00 0.00 61 1010.5
20260508014357 50 204 0.0 0.0 0.00 0.00 0.00 61 1010.4
20260508013855 50 186 0.0 0.0 0.00 0.00 0.00 61 1010.4
20260508013357 50 228 0.0 0.0 0.00 0.00 0.00 62 1010.4
20260508013137 50 221 0.0 0.0 0.00 0.00 0.00 62 1010.4
20260508012352 50 216 0.0 0.0 0.00 0.00 0.00 62 1010.3
20260508011850 50 219 0.0 0.0 0.00 0.00 0.00 62 1010.2
20260508011351 50 207 0.0 0.0 0.00 0.00 0.00 62 1010.1
20260508010850 50 152 0.0 0.0 0.00 0.00 0.00 61 1010.1
20260508010348 50 186 0.0 0.0 0.00 0.00 0.00 61 1010.1
20260508005848 49 202 0.0 0.0 0.00 0.00 0.00 62 1010.1
20260508005348 49 181 0.0 0.0 0.00 0.00 0.00 62 1010.1
20260508004846 49 199 0.0 0.0 0.00 0.00 0.00 62 1010.1
20260508004347 49 207 0.0 0.0 0.00 0.00 0.00 62 1010.1
20260508003844 49 146 0.0 0.0 0.00 0.00 0.00 62 1010.1
20260508003345 49 192 0.0 0.0 0.00 0.00 0.00 62 1010.2
20260508002846 50 123 0.0 0.0 0.00 0.00 0.00 62 1010.1
20260508002347 50 175 0.0 0.0 0.00 0.00 0.00 62 1010.2
20260508002126 50 161 0.0 0.0 0.00 0.00 0.00 62 1010.2
20260508001339 50 120 0.0 0.0 0.00 0.00 0.00 62 1010.2
20260508000840 50 175 0.0 0.0 0.00 0.00 0.00 63 1010.3
20260508000337 50 232 0.0 0.0 0.00 0.00 0.00 63 1010.3
20260508000154 50 200 0.0 0.0 0.00 0.00 0.00 63 1010.3
20260508000148 50 186 0.0 0.0 0.00 0.00 0.00 63 1010.3
20260507234831 50 229 0.0 0.0 0.00 0.00 0.00 63 1010.2
20260507234333 50 191 0.0 0.0 0.00 0.00 0.00 63 1010.2
20260507233832 50 148 0.0 0.0 0.00 0.00 0.00 63 1010.1
20260507233332 50 220 0.0 0.0 0.00 0.00 0.00 63 1010.1
20260507232832 50 200 0.0 0.0 0.00 0.00 0.00 64 1010.1
20260507232617 50 211 0.0 0.0 0.00 0.00 0.00 64 1010.1
20260507231833 50 117 0.0 0.0 0.00 0.00 0.00 64 1010.0
20260507231332 50 201 0.0 0.0 0.00 0.00 0.00 64 1010.1
20260507230832 50 225 0.0 0.0 0.00 0.00 0.00 64 1010.1
20260507230405 50 226 0.0 0.0 0.00 0.00 0.00 64 1010.0
20260507230355 50 219 0.0 0.0 0.00 0.00 0.00 64 1010.1
20260507225332 51 183 0.0 0.0 0.00 0.00 0.00 64 1009.9
20260507224832 51 209 0.0 0.0 0.00 0.00 0.00 64 1009.9
20260507224331 51 178 0.0 0.0 0.00 0.00 0.00 64 1010.0
20260507223833 51 203 0.0 0.0 0.00 0.00 0.00 64 1010.0
20260507223615 51 182 0.0 0.0 0.00 0.00 0.00 64 1010.0
20260507222829 51 191 0.0 0.0 0.00 0.00 0.00 64 1009.9
20260507222329 51 164 0.0 0.0 0.00 0.00 0.00 64 1010.0
20260507221827 51 182 0.0 0.0 0.00 0.00 0.00 65 1009.9
20260507221615 51 182 0.0 0.0 0.00 0.00 0.00 65 1009.9
20260507220828 51 215 0.0 0.0 0.00 0.00 0.00 65 1009.9
20260507220325 51 182 0.0 0.0 0.00 0.00 0.00 65 1009.9
20260507215825 51 220 0.0 0.0 0.00 0.00 0.00 65 1009.9
20260507215325 51 176 0.0 0.0 0.00 0.00 0.00 65 1009.9
20260507214825 51 123 0.0 0.0 0.00 0.00 0.00 65 1009.9
20260507214326 51 246 0.0 0.0 0.00 0.00 0.00 65 1009.8
20260507213823 52 175 0.0 0.0 0.00 0.00 0.00 65 1009.7
20260507213324 52 218 0.0 0.0 0.00 0.00 0.00 66 1009.7
20260507212823 52 222 0.0 0.0 0.00 0.00 0.00 66 1009.7
20260507212322 52 212 0.0 0.0 0.00 0.00 0.00 66 1009.7
20260507211822 52 229 0.0 0.0 0.00 0.00 0.00 66 1009.8
20260507211320 52 249 0.0 0.0 0.00 0.00 0.00 66 1009.8
20260507210819 52 110 0.0 0.0 0.00 0.00 0.00 66 1009.9
20260507210320 53 205 0.0 0.0 0.00 0.00 0.00 66 1009.9
20260507205821 53 213 0.0 0.0 0.00 0.00 0.00 66 1010.1
20260507205320 53 0 0.0 0.0 0.00 0.00 0.00 66 1010.1
20260507204821 53 227 0.0 0.0 0.00 0.00 0.00 66 1010.1
20260507204609 53 166 0.0 0.0 0.00 0.00 0.00 65 1010.1
20260507203819 53 126 0.0 0.0 0.00 0.00 0.00 65 1010.1
20260507203319 53 136 0.0 0.0 0.00 0.00 0.00 65 1010.1
20260507203148 53 210 0.0 0.0 0.00 0.00 0.00 65 1010.1
20260507203142 53 124 0.0 0.0 0.00 0.00 0.00 65 1010.1
20260507202108 53 196 0.0 0.0 0.00 0.00 0.00 65 1010.0
20260507201316 53 211 0.0 0.0 0.00 0.00 0.00 65 1010.0
20260507201107 54 142 0.0 0.0 0.00 0.00 0.00 65 1010.0
20260507200606 54 217 0.0 0.0 0.00 0.00 0.00 65 1009.9
20260507195816 54 202 0.0 0.0 0.00 0.00 0.00 65 1009.9
20260507195318 54 194 0.0 0.0 0.00 0.00 0.00 65 1009.9
20260507194811 54 220 0.0 0.0 0.00 0.00 0.00 65 1009.9
20260507194311 54 191 0.0 0.0 0.00 0.00 0.00 65 1009.9
20260507193811 54 210 0.0 0.0 0.00 0.00 0.00 65 1009.8
20260507193312 54 218 0.0 0.0 0.00 0.00 0.00 64 1009.8
20260507192810 55 221 0.0 0.0 0.00 0.00 0.00 64 1009.7
20260507192558 55 147 0.0 0.0 0.00 0.00 0.00 64 1009.7
20260507192057 55 198 0.0 0.0 0.00 0.00 0.00 63 1009.7
20260507191308 55 188 0.0 0.0 0.00 0.00 0.00 63 1009.7
20260507191057 55 194 0.0 0.0 0.00 0.00 0.00 62 1009.7
20260507190559 55 240 0.0 0.0 0.00 0.00 0.00 62 1009.7
20260507185808 55 209 0.0 0.0 0.00 0.00 0.00 62 1009.7
20260507185553 55 181 0.0 0.0 0.00 0.00 0.00 62 1009.7
20260507185058 56 242 0.0 0.0 0.00 0.00 0.00 61 1009.6
20260507184309 56 215 0.0 0.0 0.00 0.00 0.00 61 1009.6
20260507184054 56 197 0.0 0.0 0.00 0.00 0.00 61 1009.5
20260507183307 56 184 0.0 0.0 0.00 0.00 0.00 60 1009.6
20260507182807 56 269 0.0 0.0 0.00 0.00 0.00 60 1009.6
20260507182306 56 200 0.0 0.0 0.00 0.00 0.00 60 1009.5
20260507181804 56 238 0.0 0.0 0.00 0.00 0.00 59 1009.5
20260507181303 56 225 0.0 0.0 0.00 0.00 0.00 59 1009.4
20260507181051 56 178 0.0 0.0 0.00 0.00 0.00 59 1009.5
20260507180303 57 199 0.0 0.0 0.00 0.00 0.00 59 1009.4
20260507175803 57 90 0.0 0.0 0.00 0.00 0.00 58 1009.3
20260507175306 57 132 0.0 0.0 0.00 0.00 0.00 58 1009.3
20260507174804 57 85 0.0 0.0 0.00 0.00 0.00 57 1009.2
20260507174543 57 221 0.0 0.0 0.00 0.00 0.00 57 1009.2
20260507173834 58 194 0.0 0.0 0.00 0.00 0.00 55 1009.1
20260507173822 58 197 0.0 0.0 0.00 0.00 0.00 56 1009.1
20260507172756 59 191 0.0 0.0 0.00 0.00 0.00 54 1009.1
20260507172258 59 245 0.0 0.0 0.00 0.00 0.00 53 1009.3
20260507171757 59 239 0.0 0.0 0.00 0.00 0.00 53 1009.2
20260507171257 59 227 0.0 0.0 0.00 0.00 0.00 53 1009.2
20260507170757 60 214 0.0 0.0 0.00 0.00 0.00 53 1009.2
20260507170551 60 176 0.0 0.0 0.00 0.00 0.00 53 1009.3
20260507170040 60 201 0.0 0.0 0.00 0.00 0.00 52 1009.3
20260507165256 60 185 0.0 0.0 0.00 0.00 0.00 52 1009.4
20260507164756 60 217 0.0 0.0 0.00 0.00 0.00 52 1009.4
20260507164254 60 157 0.0 0.0 0.00 0.00 0.00 52 1009.5
20260507163755 60 231 0.0 0.0 0.00 0.00 0.00 51 1009.5
20260507163255 60 207 0.0 0.0 0.00 0.00 0.00 50 1009.4
20260507162755 60 223 0.0 0.0 0.00 0.00 0.00 50 1009.5
20260507162258 60 181 0.0 0.0 0.00 0.00 0.00 50 1009.5
20260507161755 60 188 0.0 0.0 0.00 0.00 0.00 50 1009.5
20260507161256 61 260 0.0 0.0 0.00 0.00 0.00 49 1009.4
20260507160752 61 227 0.0 0.0 0.00 0.00 0.00 50 1009.5
20260507160252 61 235 0.0 0.0 0.00 0.00 0.00 48 1009.5
20260507155754 61 242 0.0 0.0 0.00 0.00 0.00 49 1009.5
20260507155252 61 132 0.0 0.0 0.00 0.00 0.00 48 1009.4
20260507154755 61 205 0.0 0.0 0.00 0.00 0.00 51 1009.5
20260507154254 60 184 0.0 0.0 0.00 0.00 0.00 53 1009.5
20260507153750 59 191 0.0 0.0 0.00 0.00 0.00 53 1009.5
20260507153250 59 244 0.0 0.0 0.00 0.00 0.00 53 1009.5
20260507152750 58 239 0.0 0.0 0.00 0.00 0.00 54 1009.5
20260507152246 58 231 0.0 0.0 0.00 0.00 0.00 55 1009.6
20260507151747 58 161 0.0 0.0 0.00 0.00 0.00 55 1009.6
20260507151248 58 258 0.0 0.0 0.00 0.00 0.00 54 1009.8
20260507151032 58 186 0.0 0.0 0.00 0.00 0.00 53 1009.8
20260507150246 58 255 0.0 0.0 0.00 0.00 0.00 53 1009.8
20260507145745 58 196 0.0 0.0 0.00 0.00 0.00 54 1009.8
20260507145246 57 185 0.0 0.0 0.00 0.00 0.00 55 1009.8
20260507145038 57 249 0.0 0.0 0.00 0.00 0.00 55 1009.9
20260507144242 56 165 0.0 0.0 0.00 0.00 0.00 55 1009.8
20260507143742 56 242 0.0 0.0 0.00 0.00 0.00 55 1009.9
20260507143535 56 158 0.0 0.0 0.00 0.00 0.00 55 1009.9